Find Starlink 34652

NORAD ID: 64772 Int'l Des: 2025-147 Owner: SPXS Country: US Constellation: starlink operational
LEOCIRCULAR

現在のビュー

3D地球を読み込み中...

About Starlink 34652

Starlink 34652 (NORAD 64772) is a starlink constellation satellite (v2 mini) launched Jul 8, 2025 by SPXS of US. It operates in LEO, CIRCULAR orbit with a mass of 575.00 kg.

Starlink 34652について

説明を読み込み中...

次回通過

Passes for default location (London). Set your location on the main map for personalized predictions.

高度履歴

Loading altitude history...

軌道要素

1 64772U 25147T 26193.90765207 .00012928 00000-0 39307-3 0 9999
2 64772 53.1610 18.9654 0001281 112.4418 247.6720 15.34401286 57958
Epoch: Jul 12, 2026 • Age: 26 hours

現在のステータス

高度 480.2 km
遠地点 / 近地点 N/A
速度 7.62 km/s
衛星直下点 -48.57°S, 23.51°E
打ち上げ日 Jul 8, 2025
運用期間 1 year
タイプ internet

技術仕様

分類 Payload
質量 575.00 kg
乾燥質量 530.00 kg
総質量 575.00 kg
長さ 0.30 m
直径 4.10 m
スパン 29.00 m
形状 Box + pan
製造者 SPXS
バスタイプ Starlink V2MO
フェーズステータス In Orbit
所有者/国 SPXS/US

Most Searched